GW7231 Weather Reports


Display with metric or nautical units.
time (UTC)temp
F
wind
direction
speed
MPH
gust
MPH
rain 1hr
in
rain 24hr
in
rain mn
in
humidity
%
barometer
mb
20260507034211 55 188 0.0 0.0 0.00 0.00 0.00 84 1022.0
20260507033710 55 188 0.0 0.0 0.00 0.00 0.00 84 1021.8
20260507033207 55 188 0.0 0.0 0.00 0.00 0.00 83 1021.7
20260507032704 55 188 0.0 0.0 0.00 0.00 0.00 82 1021.8
20260507032200 55 188 0.0 0.0 0.00 0.00 0.00 83 1022.0
20260507031657 55 188 0.0 0.0 0.00 0.00 0.00 83 1021.8
20260507031153 55 188 0.0 0.0 0.00 0.00 0.00 81 1021.9
20260507030650 55 188 0.0 0.0 0.00 0.00 0.00 82 1021.7
20260507030148 55 188 0.0 0.0 0.00 0.00 0.00 82 1021.9
20260507025644 55 188 0.0 0.0 0.00 0.00 0.00 82 1021.6
20260507025142 55 188 0.0 0.0 0.00 0.00 0.00 82 1021.8
20260507024640 55 188 0.0 0.0 0.00 0.00 0.00 82 1021.8
20260507024137 55 188 0.0 0.0 0.00 0.00 0.00 81 1021.7
20260507023632 56 188 0.0 0.0 0.00 0.00 0.00 80 1021.7
20260507023130 56 192 0.0 0.0 0.00 0.00 0.00 80 1021.5
20260507022626 56 192 0.0 0.0 0.00 0.00 0.00 80 1021.6
20260507022122 56 192 0.0 0.0 0.00 0.00 0.00 79 1021.6
20260507021619 56 192 0.0 0.0 0.00 0.00 0.00 81 1021.5
20260507021114 56 192 0.0 0.0 0.00 0.00 0.00 80 1021.6
20260507020613 55 192 0.0 0.0 0.00 0.00 0.00 80 1021.8
20260507020109 55 192 0.0 0.0 0.00 0.00 0.00 80 1021.6
20260507015608 55 192 0.0 0.0 0.00 0.00 0.00 80 1021.4
20260507015104 55 192 0.0 0.0 0.00 0.00 0.00 81 1021.6
20260507014601 55 192 0.0 0.0 0.00 0.00 0.00 81 1021.4
20260507014057 55 192 0.0 0.0 0.00 0.00 0.00 80 1021.5
20260507013553 56 192 0.0 0.0 0.00 0.00 0.00 79 1021.5
20260507013051 56 192 0.0 0.0 0.00 0.00 0.00 80 1021.5
20260507012548 56 192 0.0 0.0 0.00 0.00 0.00 79 1021.5
20260507012044 56 192 0.0 1.0 0.00 0.00 0.00 78 1021.5
20260507011542 56 192 0.0 0.0 0.00 0.00 0.00 79 1021.7
20260507011038 56 189 1.0 1.0 0.00 0.00 0.00 77 1021.6
20260507010532 56 189 0.0 0.0 0.00 0.00 0.00 76 1021.6
20260507010029 56 189 0.0 0.0 0.00 0.00 0.00 76 1021.7
20260507005527 56 189 0.0 0.0 0.00 0.00 0.00 76 1021.5
20260507005023 56 189 0.0 0.0 0.00 0.00 0.00 76 1021.8
20260507004520 57 189 0.0 0.0 0.00 0.00 0.00 75 1021.8
20260507004017 57 189 0.0 0.0 0.00 0.00 0.00 76 1021.7
20260507003512 57 189 0.0 0.0 0.00 0.00 0.00 75 1021.7
20260507003008 57 189 0.0 0.0 0.00 0.00 0.00 76 1021.7
20260507002504 56 189 0.0 0.0 0.00 0.00 0.00 75 1021.6
20260507002001 56 189 0.0 0.0 0.00 0.00 0.00 75 1021.8
20260507001457 56 189 1.0 1.0 0.00 0.00 0.00 75 1021.8
20260507000955 56 192 1.0 2.0 0.00 0.00 0.00 75 1021.7
20260507000450 57 193 1.0 1.0 0.00 0.00 0.00 74 1021.7
20260506235946 57 196 2.0 2.0 0.00 0.00 0.00 74 1021.7
20260506235444 57 195 0.0 1.0 0.00 0.00 0.00 75 1021.7
20260506234939 56 195 0.0 0.0 0.00 0.00 0.00 76 1021.5
20260506234437 56 195 0.0 0.0 0.00 0.00 0.00 76 1021.8
20260506233934 56 197 1.0 1.0 0.00 0.00 0.00 74 1021.8
20260506233431 56 189 0.0 0.0 0.00 0.00 0.00 74 1021.6
20260506232927 57 189 0.0 0.0 0.00 0.00 0.00 73 1021.5
20260506232424 57 189 0.0 0.0 0.00 0.00 0.00 73 1021.9
20260506231919 57 187 1.0 1.0 0.00 0.00 0.00 73 1021.8
20260506231417 57 187 0.0 0.0 0.00 0.00 0.00 73 1021.7
20260506230915 57 183 0.0 0.0 0.00 0.00 0.00 73 1021.7
20260506230411 57 183 1.0 1.0 0.00 0.00 0.00 73 1021.6
20260506225907 57 206 0.0 0.0 0.00 0.00 0.00 72 1021.7
20260506225405 57 202 1.0 1.0 0.00 0.00 0.00 71 1021.8
20260506224901 57 209 0.0 0.0 0.00 0.00 0.00 72 1021.7
20260506224359 57 227 1.0 1.0 0.00 0.00 0.00 70 1021.7
20260506223855 57 181 0.0 0.0 0.00 0.00 0.00 72 1021.8
20260506223350 57 178 0.0 0.0 0.00 0.00 0.00 70 1021.7
20260506222848 57 225 1.0 1.0 0.00 0.00 0.00 70 1021.8
20260506222343 57 238 3.0 3.0 0.00 0.00 0.00 69 1021.8
20260506221841 57 205 1.0 2.0 0.00 0.00 0.00 69 1021.8
20260506221339 57 201 0.0 0.0 0.00 0.00 0.00 70 1021.6
20260506220836 57 192 1.0 1.0 0.00 0.00 0.00 68 1021.7
20260506220331 57 188 0.0 0.0 0.00 0.00 0.00 70 1021.9
20260506215828 57 209 0.0 0.0 0.00 0.00 0.00 69 1021.9
20260506215324 57 210 0.0 1.0 0.00 0.00 0.00 69 1022.1
20260506214820 57 210 0.0 0.0 0.00 0.00 0.00 69 1022.1
20260506214317 57 207 0.0 0.0 0.00 0.00 0.00 69 1021.9
20260506213815 58 210 1.0 1.0 0.00 0.00 0.00 69 1021.7
20260506213312 57 195 0.0 0.0 0.00 0.00 0.00 70 1021.9
20260506212810 57 192 0.0 0.0 0.00 0.00 0.00 69 1021.7
20260506212307 58 206 2.0 3.0 0.00 0.00 0.00 68 1021.7
20260506211800 58 211 0.0 0.0 0.00 0.00 0.00 68 1021.9
20260506211257 58 195 0.0 0.0 0.00 0.00 0.00 68 1021.9
20260506210754 59 195 2.0 2.0 0.00 0.00 0.00 68 1022.0
20260506210251 58 195 0.0 0.0 0.00 0.00 0.00 68 1021.6
20260506205748 58 219 0.0 0.0 0.00 0.00 0.00 69 1021.8
20260506205244 58 213 2.0 3.0 0.00 0.00 0.00 68 1021.8
20260506204741 58 186 0.0 0.0 0.00 0.00 0.00 69 1021.9
20260506204238 58 188 1.0 1.0 0.00 0.00 0.00 69 1021.8
20260506203736 58 206 1.0 1.0 0.00 0.00 0.00 67 1021.8
20260506203233 58 204 0.0 0.0 0.00 0.00 0.00 69 1021.7
20260506202730 58 211 0.0 0.0 0.00 0.00 0.00 70 1021.8
20260506202226 58 242 1.0 1.0 0.00 0.00 0.00 70 1021.6
20260506201724 58 210 1.0 1.0 0.00 0.00 0.00 71 1021.8
20260506201220 58 218 0.0 0.0 0.00 0.00 0.00 70 1021.8
20260506200717 58 187 1.0 1.0 0.00 0.00 0.00 71 1021.7
20260506200214 57 208 2.0 3.0 0.00 0.00 0.00 71 1021.7
20260506195710 57 188 0.0 0.0 0.00 0.00 0.00 73 1021.8
20260506195207 57 190 0.0 1.0 0.00 0.00 0.00 73 1021.8
20260506194704 57 223 0.0 1.0 0.00 0.00 0.00 72 1021.5
20260506194200 56 197 0.0 0.0 0.00 0.00 0.00 74 1021.5
20260506193658 56 197 0.0 0.0 0.00 0.00 0.00 74 1021.6
20260506193155 56 202 0.0 0.0 0.00 0.00 0.00 74 1021.6
20260506192651 56 216 1.0 1.0 0.00 0.00 0.00 74 1021.7
20260506192148 56 221 1.0 2.0 0.00 0.00 0.00 76 1021.5
20260506191645 56 188 2.0 2.0 0.00 0.00 0.00 75 1021.6
20260506191141 56 192 0.0 1.0 0.00 0.00 0.00 77 1021.4
20260506190639 55 210 0.0 1.0 0.00 0.00 0.00 76 1021.4
20260506190135 55 235 1.0 0.0 0.00 0.00 0.00 77 1021.6
20260506185632 55 204 0.0 1.0 0.00 0.00 0.00 78 1021.5
20260506185128 55 204 1.0 1.0 0.00 0.00 0.00 78 1021.4
20260506184626 55 169 0.0 0.0 0.00 0.00 0.00 78 1021.5
20260506184123 55 202 2.0 2.0 0.00 0.00 0.00 79 1021.7
20260506183620 55 204 1.0 2.0 0.00 0.00 0.00 80 1021.5
20260506183116 55 193 2.0 2.0 0.00 0.00 0.00 79 1021.5
20260506182614 55 213 2.0 3.0 0.00 0.00 0.00 81 1021.4
20260506182110 54 187 0.0 0.0 0.00 0.00 0.00 83 1021.2
20260506181608 55 189 1.0 2.0 0.00 0.00 0.00 81 1021.4
20260506181105 55 191 1.0 1.0 0.00 0.00 0.00 82 1021.3
20260506180602 54 212 2.0 2.0 0.00 0.00 0.00 82 1021.6
20260506180058 54 196 1.0 1.0 0.00 0.00 0.00 83 1021.6
20260506175554 54 231 1.0 1.0 0.00 0.00 0.00 84 1021.5
20260506175050 54 232 0.0 0.0 0.00 0.00 0.00 85 1021.1
20260506174550 54 241 3.0 4.0 0.00 0.00 0.00 86 1021.1
20260506174045 53 188 2.0 2.0 0.00 0.00 0.00 87 1021.0
20260506173543 53 201 1.0 1.0 0.00 0.00 0.00 89 1021.1
20260506173040 53 199 0.0 0.0 0.00 0.00 0.00 88 1021.0
20260506172537 53 185 2.0 3.0 0.00 0.00 0.00 87 1021.1
20260506172033 54 183 0.0 0.0 0.00 0.00 0.00 86 1021.2
20260506171531 54 183 1.0 1.0 0.00 0.00 0.00 85 1021.3
20260506171028 54 215 0.0 0.0 0.00 0.00 0.00 84 1021.3
20260506170526 54 191 0.0 0.0 0.00 0.00 0.00 85 1021.1
20260506170023 54 193 0.0 0.0 0.00 0.00 0.00 85 1021.2
20260506165522 54 195 1.0 1.0 0.00 0.00 0.00 85 1021.1
20260506165018 54 192 1.0 1.0 0.00 0.00 0.00 85 1021.2
20260506164514 54 191 0.0 0.0 0.00 0.00 0.00 86 1021.0
20260506051226 57 242 0.0 0.0 0.00 0.00 0.00 82 1016.9
20260506050724 57 242 0.0 0.0 0.00 0.00 0.00 81 1016.9
20260506050221 57 242 0.0 0.0 0.00 0.00 0.00 82 1016.8
20260506044712 57 242 0.0 0.0 0.00 0.00 0.00 80 1016.6
20260506044209 58 242 0.0 0.0 0.00 0.00 0.00 80 1016.7
20260506043706 58 242 0.0 0.0 0.00 0.00 0.00 79 1016.6
20260506043204 58 242 0.0 0.0 0.00 0.00 0.00 79 1016.5
20260506042703 58 242 0.0 0.0 0.00 0.00 0.00 79 1016.6
20260506042200 58 242 0.0 0.0 0.00 0.00 0.00 78 1016.8
20260506041659 59 242 0.0 0.0 0.00 0.00 0.00 78 1016.5
20260506041155 59 242 0.0 0.0 0.00 0.00 0.00 78 1016.5
20260506040653 59 242 0.0 0.0 0.00 0.00 0.00 77 1016.6
20260506040149 59 242 0.0 0.0 0.00 0.00 0.00 77 1016.7
20260506035646 59 242 0.0 0.0 0.00 0.00 0.00 76 1016.5
20260506035143 59 242 0.0 0.0 0.00 0.00 0.00 76 1016.4
20260506034640 60 242 0.0 0.0 0.00 0.00 0.00 75 1016.3